ORSTED (25635 NORAD) Tracking and Keplerian Element Data

This shows tracking and keplerian element data for the satellite.

Feedback or suggestion? Click here.




ElementValue
Catalog25635
NameORSTED
Epoch Orbit14204
Epoch Day289.85893247
Epoch Year2020
RAAN285.7713
Inclination96.4475
Eccentricity0.0137769
Argument of Perigee326.9255
Mean Anonmoly32.3382
Mean Motion14.48228756
Decay Rate1.1E-06
L11 25635U 99008B 20289.85893247 .00000110 00000-0 34003-4 0 9990
L22 25635 96.4475 285.7713 0137769 326.9255 32.3382 14.48228756142045



Live tracking and technical data element details for ORSTED (NORAD 25635). ORSTED can be tracked NOW for your location showing map with azimuth and elevation plus other details from your city location.







IsCatalogInMostPopularTable: catalog: 25635, numindb: 401
Update: records affected: 1



GetName: 25635 ORSTED

Hit Count: updated at: Thu, 15 May 2025 19:33:59 GMT